TimeEST,TemperatureF,Dew PointF,Humidity,Sea Level PressureIn,VisibilityMPH,Wind Direction,Wind SpeedMPH,Gust SpeedMPH,PrecipitationIn,Events,Conditions,WindDirDegrees,DateUTC
12:53 AM,27.0,10.9,51,30.10,10.0,West,6.9,-,N/A,,Overcast,270,2013-01-21 05:53:00
1:53 AM,28.0,12.0,51,30.10,10.0,Calm,Calm,-,N/A,,Overcast,0,2013-01-21 06:53:00
2:53 AM,27.0,12.9,56,30.09,10.0,SW,3.5,-,N/A,,Mostly Cloudy,230,2013-01-21 07:53:00
3:53 AM,26.1,12.0,55,30.08,10.0,SW,5.8,-,N/A,,Mostly Cloudy,230,2013-01-21 08:53:00
4:53 AM,27.0,12.9,56,30.07,10.0,SW,4.6,-,N/A,,Overcast,230,2013-01-21 09:53:00
5:53 AM,27.0,12.0,53,30.06,10.0,WSW,3.5,-,N/A,,Overcast,240,2013-01-21 10:53:00
6:53 AM,26.1,12.9,58,30.05,10.0,SSW,4.6,-,N/A,,Overcast,210,2013-01-21 11:53:00
7:53 AM,26.1,14.0,60,30.05,10.0,SSW,3.5,-,N/A,,Overcast,210,2013-01-21 12:53:00
8:53 AM,27.0,14.0,58,30.04,10.0,SSW,6.9,-,N/A,,Overcast,210,2013-01-21 13:53:00
9:53 AM,28.0,12.9,53,30.04,10.0,SW,8.1,-,N/A,,Overcast,230,2013-01-21 14:53:00
10:53 AM,30.0,12.9,49,30.01,10.0,SW,9.2,-,N/A,,Overcast,230,2013-01-21 15:53:00
11:53 AM,32.0,12.0,44,29.97,10.0,SW,16.1,24.2,N/A,,Overcast,230,2013-01-21 16:53:00
12:53 PM,33.1,12.0,42,29.92,10.0,SW,21.9,27.6,N/A,,Mostly Cloudy,230,2013-01-21 17:53:00
1:53 PM,33.1,12.9,43,29.91,10.0,West,12.7,23.0,N/A,,Overcast,280,2013-01-21 18:53:00
2:53 PM,30.0,16.0,56,29.94,9.0,West,16.1,26.5,0.00,Snow,Light Snow,280,2013-01-21 19:53:00
3:53 PM,28.0,19.0,69,29.96,9.0,WNW,11.5,18.4,0.00,,Overcast,290,2013-01-21 20:53:00
4:53 PM,26.1,16.0,66,29.98,10.0,West,12.7,19.6,N/A,,Overcast,270,2013-01-21 21:53:00
5:20 PM,26.6,17.6,69,29.96,2.0,WNW,12.7,18.4,0.00,Snow,Light Snow,290,2013-01-21 22:20:00
5:22 PM,24.8,17.6,74,29.96,1.5,WNW,13.8,19.6,0.00,Snow,Light Snow,290,2013-01-21 22:22:00
5:53 PM,24.1,19.0,81,30.00,7.0,West,8.1,17.3,0.00,Snow,Light Snow,260,2013-01-21 22:53:00
6:05 PM,24.8,17.6,74,29.97,10.0,West,12.7,-,0.00,,Overcast,270,2013-01-21 23:05:00
6:53 PM,24.1,16.0,71,30.02,3.0,WNW,12.7,23.0,0.00,Snow,Light Snow,290,2013-01-21 23:53:00
7:15 PM,23.0,14.0,68,29.99,9.0,West,13.8,25.3,0.00,Snow,Light Snow,280,2013-01-22 00:15:00
7:43 PM,21.2,15.8,80,29.99,1.8,WNW,15.0,20.7,0.00,Snow,Light Snow,300,2013-01-22 00:43:00
7:51 PM,21.2,15.8,80,29.99,1.8,WNW,9.2,20.7,0.00,Snow,Light Snow,290,2013-01-22 00:51:00
7:53 PM,21.0,16.0,81,30.03,2.0,WNW,13.8,23.0,0.00,Snow,Light Snow,290,2013-01-22 00:53:00
8:11 PM,21.2,12.2,68,29.99,4.0,West,15.0,21.9,0.00,,Haze,270,2013-01-22 01:11:00
8:53 PM,21.0,10.0,63,30.04,10.0,West,12.7,24.2,0.00,,Overcast,280,2013-01-22 01:53:00
9:53 PM,19.0,6.1,57,30.07,10.0,West,17.3,25.3,N/A,,Overcast,280,2013-01-22 02:53:00
10:53 PM,17.1,3.9,56,30.08,10.0,WNW,15.0,24.2,N/A,,Mostly Cloudy,290,2013-01-22 03:53:00
11:53 PM,15.1,-0.0,51,30.09,10.0,WNW,19.6,28.8,N/A,,Partly Cloudy,290,2013-01-22 04:53:00